Weather History for KCGS - February, 2014

Change the Weather History Date:

Thursday, February 20, 2014

  Actual Average (KDCA) Record (KDCA)
Temperature  
Mean Temperature 42 °F 40 °F  
Max Temperature 56 °F 48 °F 76 °F (1930)
Min Temperature 29 °F 32 °F 8 °F (1896)
Degree Days  
Heating Degree Days 22 25  
Month to date heating degree days 535  
Since 1 July heating degree days 2915  
Cooling Degree Days 0 0  
Month to date cooling degree days 0  
Year to date cooling degree days 0  
Moisture  
Dew Point 28 °F    
Average Humidity 63    
Maximum Humidity 100    
Minimum Humidity 24    
Precipitation  
Precipitation 0.00 in 0.09 in 1.45 in (1921)
Month to date precipitation 1.87  
Year to date precipitation 4.68  
Snow  
Snow 0.00 in 0.20 in 7.60 in (1947)
Month to date snowfall 4.4  
Since 1 July snowfall 12.8  
Snow Depth -    
Sea Level Pressure  
Sea Level Pressure 30.18 in    
Wind  
Wind Speed 2 mph (SE)    
Max Wind Speed 13 mph    
Max Gust Speed 18 mph    
Visibility 10 miles    
Events      
T = Trace of Precipitation, MM = Missing Value Source: NWS Daily Summary

Daily Weather History Graph

Daily Weather History Graph

Search for Another Location

Airport or City:

Trip Planner

Search our weather history database for the weather conditions in past years. The results will help you decide how hot, cold, wet, or windy it might be!

Date:

Astronomy

Feb. 20, 2014 Rise Set
Actual Time 6:52 AM EST 5:50 PM EST
Civil Twilight 6:25 AM EST 6:17 PM EST
Nautical Twilight 5:54 AM EST 6:48 PM EST
Astronomical Twilight 5:23 AM EST 7:19 PM EST
Moon 11:39 PM EST (2/20) 9:37 AM EST (2/20)
Length of Visible Light 11h 52m
Length of Day
10h 57m
Waning Gibbous, 71% of the Moon is Illuminated
Feb 20
Waning Gibbous
Feb 22
Last Quarter
Mar 1
New
Mar 8
First Quarter
Mar 16
Full

Hourly Weather History & Observations

Time (EST) Temp. Windchill Dew Point Humidity Pressure Visibility Wind Dir Wind Speed Gust Speed Precip Events Conditions
12:00 AM 42.3 °F - 31.5 °F 66% 30.15 in 10.0 mi Calm Calm - N/A   Clear
12:20 AM 43.0 °F 41.3 °F 31.5 °F 64% 30.15 in 10.0 mi NNW 3.5 mph - N/A   Clear
12:35 AM 41.5 °F - 31.5 °F 67% 30.17 in 10.0 mi Calm Calm - N/A   Clear
1:00 AM 36.9 °F - 31.8 °F 82% 30.17 in 10.0 mi Calm Calm - N/A   Clear
1:20 AM 37.6 °F - 31.8 °F 80% 30.17 in 10.0 mi Calm Calm - N/A   Clear
1:40 AM 35.2 °F - 31.6 °F 87% 30.17 in 10.0 mi Calm Calm - N/A   Clear
2:00 AM 33.8 °F - 31.1 °F 90% 30.18 in 10.0 mi Calm Calm - N/A   Clear
2:20 AM 33.8 °F - 31.8 °F 92% 30.18 in 10.0 mi Calm Calm - N/A   Clear
2:40 AM 33.8 °F - 31.8 °F 92% 30.19 in 10.0 mi Calm Calm - N/A   Clear
3:00 AM 33.1 °F - 31.5 °F 94% 30.18 in 10.0 mi Calm Calm - N/A   Clear
3:20 AM 33.6 °F - 32.0 °F 94% 30.18 in 10.0 mi Calm Calm - N/A   Clear
3:40 AM 32.2 °F - 31.1 °F 96% 30.18 in 10.0 mi Calm Calm - N/A   Clear
4:00 AM 32.4 °F - 31.6 °F 97% 30.18 in 10.0 mi Calm Calm - N/A   Clear
4:20 AM 32.7 °F - 32.0 °F 97% 30.19 in 10.0 mi Calm Calm - N/A   Clear
4:40 AM 32.0 °F - 30.7 °F 95% 30.19 in 10.0 mi Calm Calm - N/A   Clear
5:00 AM 32.0 °F - 31.5 °F 98% 30.20 in 10.0 mi Calm Calm - N/A   Clear
5:20 AM 32.0 °F - 31.1 °F 96% 30.23 in 10.0 mi Calm Calm - N/A   Clear
5:40 AM 31.6 °F - 30.4 °F 95% 30.25 in 10.0 mi Calm Calm - N/A   Clear
6:00 AM 30.9 °F - 29.8 °F 96% 30.25 in 10.0 mi Calm Calm - N/A   Clear
6:20 AM 30.7 °F - 30.0 °F 97% 30.24 in 10.0 mi Calm Calm - N/A   Clear
6:40 AM 30.7 °F - 30.4 °F 99% 30.25 in 10.0 mi Calm Calm - N/A   Clear
7:00 AM 29.7 °F - 29.3 °F 99% 30.24 in 7.0 mi Calm Calm - N/A   Clear
7:20 AM 30.4 °F - 30.0 °F 99% 30.25 in 5.0 mi Calm Calm - N/A   Clear
7:40 AM 32.0 °F - 32.0 °F 100% 30.26 in 10.0 mi Calm Calm - N/A   Clear
8:00 AM 32.9 °F - 32.0 °F 96% 30.26 in 10.0 mi Calm Calm - N/A   Clear
8:20 AM 34.5 °F - 32.7 °F 93% 30.26 in 10.0 mi Calm Calm - N/A   Clear
8:40 AM 38.3 °F - 33.4 °F 83% 30.26 in 10.0 mi Calm Calm - N/A   Clear
9:00 AM 40.3 °F - 32.4 °F 73% 30.25 in 10.0 mi Calm Calm - N/A   Clear
9:20 AM 44.8 °F - 32.7 °F 63% 30.25 in 10.0 mi Calm Calm - N/A   Clear
9:35 AM 46.9 °F - 32.2 °F 57% 30.25 in 10.0 mi East 3.5 mph - N/A   Clear
10:00 AM 50.4 °F - 27.5 °F 41% 30.24 in 10.0 mi Calm Calm - N/A   Clear
10:20 AM 50.9 °F - 26.2 °F 38% 30.24 in 10.0 mi SSE 5.8 mph - N/A   Clear
10:40 AM 51.3 °F - 24.3 °F 35% 30.25 in 10.0 mi SE 8.1 mph - N/A   Scattered Clouds
11:00 AM 52.9 °F - 25.5 °F 35% 30.25 in 10.0 mi SSE 4.6 mph - N/A   Mostly Cloudy
11:20 AM 52.3 °F - 23.7 °F 33% 30.23 in 10.0 mi SE 8.1 mph - N/A   Mostly Cloudy
11:40 AM 53.8 °F - 25.2 °F 33% 30.22 in 10.0 mi SE 5.8 mph - N/A   Scattered Clouds
12:00 PM 54.0 °F - 23.7 °F 31% 30.21 in 10.0 mi SSE 6.9 mph - N/A   Scattered Clouds
12:20 PM 55.6 °F - 23.5 °F 29% 30.18 in 10.0 mi SE 10.4 mph - N/A   Scattered Clouds
12:40 PM 56.3 °F - 22.5 °F 27% 30.17 in 10.0 mi South 6.9 mph - N/A   Clear
1:00 PM 56.8 °F - 19.8 °F 24% 30.16 in 10.0 mi SSE 12.7 mph 18.4 mph N/A   Scattered Clouds
1:20 PM 56.5 °F - 20.3 °F 24% 30.14 in 10.0 mi SSE 8.1 mph - N/A   Scattered Clouds
1:40 PM 56.5 °F - 21.9 °F 26% 30.13 in 10.0 mi SE 9.2 mph - N/A   Scattered Clouds
2:00 PM 56.3 °F - 22.1 °F 27% 30.12 in 10.0 mi SSE 6.9 mph - N/A   Overcast
2:20 PM 56.3 °F - 22.5 °F 27% 30.11 in 10.0 mi SE 8.1 mph - N/A   Overcast
2:40 PM 55.4 °F - 23.2 °F 29% 30.11 in 10.0 mi SE 6.9 mph - N/A   Overcast
3:00 PM 55.4 °F - 22.5 °F 28% 30.10 in 10.0 mi SE 3.5 mph - N/A   Overcast
3:20 PM 54.9 °F - 20.7 °F 26% 30.10 in 10.0 mi SE 6.9 mph - N/A   Overcast
3:40 PM 54.7 °F - 20.8 °F 27% 30.09 in 10.0 mi SSE 3.5 mph - N/A   Overcast
4:00 PM 54.3 °F - 21.2 °F 28% 30.09 in 10.0 mi SE 4.6 mph - N/A   Overcast
4:20 PM 53.8 °F - 22.3 °F 29% 30.09 in 10.0 mi SE 3.5 mph - N/A   Overcast
4:40 PM 53.2 °F - 23.0 °F 31% 30.07 in 10.0 mi ESE 4.6 mph - N/A   Mostly Cloudy
4:55 PM 52.7 °F - 23.7 °F 32% 30.06 in 10.0 mi SE 4.6 mph - N/A   Mostly Cloudy
5:05 PM 52.3 °F - 23.9 °F 33% 30.07 in 10.0 mi SSE 4.6 mph - N/A   Scattered Clouds